Regional Weather Roundup
Issued by NWS

Home | Current Version | Previous Version | Graphics & Text | Print | Product List | Glossary On
Versions: 1 2 3 4 5 6 7 8 9 10 11 12 13 14 15 16 17 18 19 20 21 22 23 24 25 26 27 28 29 30 31 32 33 34 35 36 37 38 39 40 41 42 43 44 45 46 47 48 49 50
000
ASUS45 KSLC 271410
RWRUT

UTAH REGIONAL WEATHER ROUNDUP
NATIONAL WEATHER SERVICE SALT LAKE CITY UT
800 AM MDT SUN JUL 27 2014

UTZ001>011-023>025-271500-

NORTHERN UTAH

CITY           SKY/WX    TMP DP  RH WIND       PRES   REMARKS
HILL AFB       MOSUNNY   67  34  29 E23G30    30.21R
LOGAN          SUNNY     58  43  57 CALM      30.24S
OGDEN          SUNNY     71  35  26 S6        30.18R
PROVO AIRPORT  MOSUNNY   70  50  49 CALM      30.22R
SALT LAKE CITY PTSUNNY   75  41  29 SE7       30.17R
VERNAL         CLOUDY    69  41  36 W5        30.29R
WENDOVER       PTSUNNY   73  34  23 CALM      30.18R
HEBER CITY     MOSUNNY   63  46  55 CALM      30.33R
WEST JORDAN    SUNNY     73  46  38 CALM      30.21R

$$

UTZ012>022-026-027-271500-

SOUTHERN UTAH

CITY           SKY/WX    TMP DP  RH WIND       PRES   REMARKS
BRYCE CANYON   SUNNY     54  44  69 W7        30.45R
CEDAR CITY     MOSUNNY   62  47  57 W3        30.26R
MILFORD        MOSUNNY   63  51  65 S7        30.22R
MOAB/CYNLANDS  MOSUNNY   79  48  33 E6        30.17R
PRICE          PTSUNNY   74  42  31 CALM      30.29R
ST GEORGE      MOSUNNY   77  55  47 SE3       30.11R
KANAB            N/A     66  48  52 NW12      30.26R

$$

REGIONAL REPORTS     COLORADO/ARIZONA

CITY           SKY/WX    TMP DP  RH WIND       PRES   REMARKS
CRAIG, CO      PTSUNNY   52  51  97 CALM      30.39R
GRAND JUNCTION MOSUNNY   73  51  46 SE13      30.25R
RIFLE          PTSUNNY   64  54  69 CALM      30.34R
MONTROSE       MOSUNNY   67  51  56 S5        30.34R
CORTEZ         SUNNY     68  49  50 NE3       30.34R
PAGE, AZ       PTSUNNY   82  49  31 CALM      30.17R
GRAND CANYON   CLOUDY    67  46  47 CALM      30.38R
KINGMAN        CLOUDY    79  58  48 SE8       30.11R
FLAGSTAFF      MOSUNNY   61  54  77 CALM      30.40R

$$

REGIONAL REPORTS    NEVADA/IDAHO/WYOMING

CITY           SKY/WX    TMP DP  RH WIND       PRES   REMARKS
LAS VEGAS, NV  CLOUDY    89  54  30 SW5       29.95R
ELY            MOSUNNY   63  40  42 S9        30.32S
ELKO           CLOUDY    62  38  40 CALM      30.22R
POCATELLO, ID  SUNNY     56  37  49 NE5       30.25R
BURLEY         SUNNY     60  48  64 CALM      30.20R
EVANSTON, WY   MOSUNNY   63  29  27 E6        30.43R
ROCK SPRINGS   SUNNY     63  32  31 E12       30.43R

$$


USA.gov is the U.S. government's official web portal to all federal, state and local government web resources and services.